Temperature
13 13 13 13 13 13 13 13 12 11 10 10 9 9 8 7 6 6 6 5 5 5 4 4 3 2 2 1 0 -0 -1 -3 -4 -3 -4 -4 -4 -4 -4 -4 -5 -5 -5
12 12 12 12 12 12 11 11 10 10 9 9 8 7 6 5 5 5 5 4 4 4 3 3 2 1 1 0 -1 -1 -2 -3 -4 -5 -5 -5 -5 -5 -6 -6 -6 -6 -6
11 11 11 11 11 10 10 9 9 8 8 7 6 5 5 5 4 4 4 3 3 2 2 1 1 1 0 -1 -1 -2 -3 -4 -5 -6 -6 -6 -6 -6 -7 -7 -7 -7 -7
10 10 10 10 9 9 8 8 7 7 6 5 4 4 4 4 3 3 3 2 2 1 1 0 0 -0 -1 -2 -3 -3 -4 -5 -6 -7 -7 -7 -7 -7 -8 -8 -8 -7 -7
8 8 8 8 7 7 7 6 5 5 4 3 3 3 3 3 2 2 2 1 1 0 -0 -0 -1 -1 -2 -3 -4 -5 -6 -6 -7 -7 -8 -8 -8 -8 -8 -8 -9 -9 -8
6 6 6 6 5 5 4 4 3 3 2 2 2 2 2 2 2 1 1 0 -0 -0 -1 -1 -1 -2 -3 -4 -5 -6 -7 -7 -8 -8 -8 -8 -8 -8 -9 -9 -9 -9 -9
3 3 3 3 3 2 2 2 2 2 2 2 2 2 1 1 0 0 -0 -0 -1 -1 -1 -2 -2 -3 -4 -5 -5 -6 -7 -8 -8 -8 -9 -9 -9 -9 -9 -9 -9 -9 -9
2 1 1 1 1 1 1 1 1 1 1 1 1 1 1 0 -0 -0 -1 -1 -2 -2 -3 -3 -4 -4 -5 -6 -7 -7 -8 -8 -8 -8 -9 -9 -9 -9 -9 -9 -9 -9 -9
-0 -0 -0 -0 0 0 0 0 1 1 1 1 0 0 -0 -0 -1 -1 -2 -2 -3 -3 -3 -4 -5 -6 -6 -7 -8 -8 -8 -8 -8 -8 -8 -8 -8 -8 -9 -9 -9 -9 -10
-1 -1 -1 -0 -0 0 0 0 0 0 0 0 -0 -1 -1 -1 -2 -2 -3 -3 -4 -4 -4 -5 -6 -6 -7 -8 -9 -9 -8 -8 -8 -8 -7 -7 -7 -7 -8 -8 -9 -10 -10
-1 -1 -1 -0 -0 -0 0 0 0 0 -0 -1 -1 -1 -2 -2 -3 -3 -4 -5 -6 -6 -5 -5 -6 -6 -7 -8 -9 -9 -8 -9 -9 -8 -8 -7 -7 -7 -7 -7 -8 -9 -10
-1 -1 -1 -0 -0 -0 -0 -0 -1 -1 -1 -1 -2 -2 -2 -3 -4 -4 -5 -6 -7 -7 -6 -7 -7 -8 -8 -8 -8 -8 -8 -9 -8 -8 -8 -7 -7 -7 -7 -7 -7 -8 -8
-0 -0 -0 -0 -0 -1 -1 -1 -1 -1 -1 -2 -2 -3 -3 -4 -4 -5 -5 -6 -7 -7 -7 -8 -8 -8 -8 -8 -8 -8 -8 -8 -8 -8 -8 -8 -8 -8 -7 -7 -7 -7 -7
-0 -0 -0 -0 -1 -1 -1 -1 -1 -2 -2 -2 -3 -3 -4 -4 -5 -6 -6 -7 -7 -8 -8 -8 -8 -8 -8 -8 -8 -8 -8 -8 -8 -8 -8 -8 -8 -8 -8 -8 -8 -8 -8
0 -0 -1 -1 -1 -1 -1 -2 -2 -2 -3 -3 -4 -4 -5 -5 -6 -8 -8 -8 -9 -9 -9 -8 -8 -8 -7 -7 -7 -7 -8 -8 -8 -8 -8 -8 -8 -8 -8 -8 -8 -8 -9
-0 -0 -1 -1 -1 -2 -2 -2 -3 -3 -4 -4 -5 -6 -6 -7 -7 -7 -8 -8 -9 -9 -9 -8 -8 -8 -8 -8 -8 -7 -7 -8 -8 -8 -8 -8 -8 -8 -8 -8 -8 -8 -9
-0 -1 -1 -2 -2 -2 -3 -3 -3 -4 -5 -5 -6 -6 -7 -7 -7 -8 -8 -8 -8 -9 -9 -8 -8 -8 -8 -8 -8 -8 -8 -8 -8 -8 -8 -8 -8 -8 -8 -8 -8 -8 -9
-1 -1 -2 -2 -2 -3 -3 -3 -4 -4 -5 -6 -6 -7 -7 -8 -8 -8 -8 -8 -8 -8 -9 -9 -8 -8 -8 -8 -8 -8 -8 -7 -7 -8 -8 -8 -8 -8 -8 -8 -8 -9 -9
-1 -2 -2 -2 -3 -3 -4 -4 -5 -5 -6 -6 -6 -7 -7 -8 -8 -9 -9 -9 -9 -9 -8 -8 -8 -8 -8 -8 -8 -8 -8 -8 -7 -8 -8 -8 -8 -8 -8 -8 -8 -9 -9
-2 -2 -2 -3 -3 -4 -4 -5 -5 -6 -6 -7 -7 -7 -8 -8 -8 -9 -9 -9 -9 -9 -9 -8 -8 -8 -8 -8 -8 -8 -8 -7 -7 -7 -7 -8 -8 -8 -8 -8 -8 -9 -9
-2 -2 -3 -3 -4 -4 -5 -5 -6 -6 -7 -7 -8 -8 -9 -9 -9 -9 -9 -9 -9 -9 -9 -8 -8 -8 -8 -8 -8 -8 -7 -7 -7 -7 -7 -7 -8 -8 -8 -8 -8 -8 -8
-2 -3 -3 -4 -4 -5 -5 -6 -6 -7 -7 -8 -8 -9 -9 -9 -9 -9 -9 -9 -9 -9 -9 -8 -8 -8 -8 -8 -8 -8 -8 -7 -7 -7 -7 -7 -7 -7 -8 -8 -8 -8 -8
-3 -3 -4 -4 -5 -5 -6 -6 -7 -8 -8 -8 -9 -9 -9 -9 -9 -9 -9 -9 -9 -9 -9 -8 -8 -8 -8 -8 -8 -8 -8 -7 -7 -7 -7 -7 -7 -7 -7 -7 -8 -8 -8
-3 -4 -4 -4 -5 -6 -6 -7 -8 -8 -8 -9 -9 -9 -9 -9 -9 -9 -9 -9 -9 -8 -8 -8 -8 -8 -8 -8 -8 -8 -8 -7 -7 -7 -7 -7 -7 -7 -7 -7 -7 -7 -7
-4 -4 -5 -5 -6 -6 -7 -8 -8 -8 -9 -9 -9 -9 -9 -9 -9 -9 -9 -9 -8 -8 -8 -8 -8 -8 -8 -8 -8 -8 -8 -7 -7 -7 -7 -7 -7 -7 -7 -7 -7 -7 -7
-4 -5 -5 -6 -6 -7 -7 -8 -8 -9 -9 -9 -9 -9 -9 -9 -9 -9 -9 -9 -8 -8 -8 -8 -8 -8 -8 -8 -8 -8 -7 -7 -7 -7 -7 -7 -7 -7 -7 -7 -7 -7 -7
Wind_Speed
6 8 10 10 11 13 13 14 14 14 15 14 14 13 12 11 10 9 7 7 6 4 3 3 3 2 2 3 3 3 4 4 7 6 4 4 6 9 14 18 19 19 19
7 9 11 12 13 13 13 14 14 15 14 14 14 13 12 10 9 8 7 6 5 4 2 1 2 2 3 3 4 5 5 5 6 9 5 5 7 9 9 10 15 17 17
9 12 12 13 13 13 14 14 15 15 14 14 13 13 12 10 9 7 7 6 4 3 1 1 3 3 4 4 5 5 5 6 6 7 8 5 6 7 9 10 11 11 17
10 12 13 13 13 14 14 14 15 15 15 14 13 12 11 10 9 8 7 5 4 3 2 2 3 4 5 6 5 7 6 6 6 7 8 7 7 7 7 8 11 7 10
11 11 12 13 14 15 15 14 15 15 15 14 13 12 10 8 7 7 6 5 4 2 3 3 4 6 7 6 6 5 5 5 5 6 8 8 8 8 9 8 13 11 10
12 13 13 15 15 15 15 15 15 15 14 13 12 11 9 7 9 8 6 4 3 2 3 4 5 6 8 11 13 14 12 9 7 6 8 10 11 10 10 12 13 15 13
14 13 14 15 16 15 16 16 15 14 13 12 10 9 8 7 8 6 5 4 2 1 3 4 4 6 8 6 11 14 13 16 16 11 11 12 13 12 13 14 13 14 15
15 14 14 15 16 16 15 14 13 11 10 9 8 7 6 5 5 4 4 4 1 2 3 3 5 6 8 10 8 7 7 9 13 11 10 12 12 11 12 13 13 12 12
14 14 14 14 15 15 14 12 10 10 8 7 6 5 4 3 3 2 2 2 2 3 4 5 6 6 13 16 10 8 9 9 15 20 21 20 23 24 19 11 9 11 14
14 13 13 13 14 13 12 10 8 8 7 6 5 4 3 1 1 0 1 2 2 4 4 5 9 12 15 16 10 8 10 10 10 12 13 15 14 16 19 9 7 10 11
13 13 12 12 11 11 9 8 7 6 6 5 5 4 3 3 3 4 5 0 2 3 4 5 6 15 17 18 16 8 13 14 8 7 9 10 9 8 8 7 7 9 12
12 12 11 10 9 8 8 7 6 6 6 5 5 4 4 4 6 6 8 8 8 4 5 5 8 17 18 18 14 14 18 15 6 8 9 9 9 9 9 10 10 10 12
11 11 9 9 7 6 6 7 5 5 5 4 3 3 2 3 4 7 8 10 12 6 6 12 15 17 16 12 14 16 13 7 7 8 9 10 8 9 10 10 11 10 12
11 9 8 8 7 6 5 5 5 4 4 3 2 1 1 3 4 4 4 5 8 8 7 9 13 14 11 12 11 9 7 7 8 8 10 11 10 9 10 9 11 11 11
9 8 7 7 6 6 5 4 4 2 3 3 2 1 1 3 5 10 7 5 5 6 6 3 4 6 6 7 7 6 6 7 8 8 10 11 11 11 11 8 8 9 10
8 7 5 5 5 5 5 4 6 4 6 4 2 1 2 5 9 11 12 13 13 12 7 5 6 7 7 8 9 10 9 8 8 9 10 10 11 11 12 10 9 10 12
8 6 5 5 5 4 3 4 3 4 6 7 7 7 6 8 10 11 12 12 11 10 4 5 6 7 7 8 8 9 10 10 9 9 10 10 11 11 11 12 11 11 12
7 7 7 5 4 4 3 3 2 2 2 3 5 8 9 9 10 11 12 9 6 6 4 5 7 7 8 8 9 9 10 10 10 10 10 10 10 11 11 12 11 12 13
7 5 5 4 4 4 3 3 2 2 2 2 3 5 9 9 9 10 9 4 5 6 6 6 7 7 8 8 9 9 10 11 11 11 11 11 10 10 11 12 12 17 16
6 9 7 5 4 3 3 2 2 2 2 3 4 4 5 5 4 5 5 4 5 6 7 8 8 8 8 9 9 9 10 11 11 11 11 11 11 11 12 14 13 13 13
5 6 8 5 3 3 2 2 1 1 2 3 4 6 9 4 5 6 6 6 6 7 8 8 8 9 8 8 8 9 11 11 11 11 11 11 11 12 12 12 13 13 13
5 4 4 3 2 2 2 1 1 2 3 4 4 6 9 5 5 6 6 7 7 7 7 8 8 8 8 9 9 10 11 12 11 11 11 12 12 12 12 12 12 12 13
5 5 4 3 2 2 2 2 2 3 3 4 5 5 5 5 6 6 7 7 7 8 7 7 9 9 8 10 10 10 11 12 12 13 13 13 12 11 11 12 13 14 13
5 4 4 2 1 1 1 2 2 3 4 4 5 5 5 6 7 8 8 8 8 8 9 9 9 12 14 14 14 14 14 15 15 12 14 13 12 11 11 11 12 13 13
4 4 3 2 1 1 2 2 3 4 4 5 5 6 6 7 7 7 8 8 9 9 10 12 11 12 14 18 18 17 20 24 23 17 11 10 11 11 11 11 11 12 12
4 3 2 1 0 1 2 3 4 4 5 5 5 6 6 7 7 8 8 8 8 10 10 11 13 16 19 19 19 21 24 25 24 21 13 8 10 10 11 10 12 11 12
Wind_Direction
176 159 151 150 145 144 147 145 143 142 143 141 138 135 131 128 125 123 125 131 128 125 136 164 201 201 201 209 208 211 215 210 255 268 252 272 281 286 298 298 298 295 293
154 144 141 139 139 140 141 140 139 138 137 135 132 129 126 123 121 124 126 122 123 130 138 181 232 230 226 226 225 232 235 228 242 276 277 270 268 276 282 285 297 297 294
136 134 133 136 137 137 135 135 134 132 129 127 126 124 121 118 115 115 113 110 105 99 97 256 264 252 253 249 244 245 247 253 244 268 284 275 274 282 286 287 285 284 290
122 128 130 131 130 129 127 128 127 125 124 121 118 115 114 113 112 108 105 100 89 68 29 327 293 265 255 255 253 250 252 259 263 270 283 286 283 282 283 293 300 284 288
107 111 115 116 117 118 118 118 117 116 114 112 110 108 109 109 109 107 104 97 80 39 356 328 305 296 287 281 272 257 251 253 263 272 284 292 294 298 297 297 301 300 289
99 104 108 111 111 111 111 111 109 107 107 106 106 108 106 107 115 111 107 100 79 18 331 323 315 309 310 317 310 303 296 288 286 280 287 292 295 294 296 297 299 302 301
93 98 102 105 106 105 105 104 103 102 100 100 101 105 105 114 120 114 107 114 92 350 322 322 325 322 330 303 300 302 299 298 296 295 291 288 290 291 291 291 290 291 294
95 96 98 102 103 102 101 100 100 100 103 106 108 113 119 128 127 121 112 118 125 296 297 294 294 298 305 304 287 283 274 278 285 285 275 276 279 280 278 287 293 295 290
97 99 100 102 103 102 103 103 102 104 105 108 115 120 122 134 147 142 120 158 256 289 293 296 307 297 308 313 309 294 288 285 294 295 294 295 298 301 303 302 299 300 298
98 99 100 102 104 105 105 103 102 106 109 110 103 100 113 142 201 256 351 182 276 296 299 296 313 316 313 315 308 297 298 296 293 297 299 300 297 295 299 290 281 288 292
102 100 99 101 104 106 104 105 109 109 106 97 89 72 63 52 22 355 347 18 283 302 308 307 304 317 317 316 316 306 299 305 308 307 303 299 298 293 289 278 269 273 282
103 101 98 97 100 105 107 105 103 105 98 91 87 68 41 23 18 4 357 346 336 318 305 297 300 314 318 320 320 312 312 321 321 308 302 300 300 300 298 294 287 277 270
106 103 101 97 95 103 108 107 97 92 95 90 87 75 28 4 350 354 347 340 334 326 300 310 315 320 325 323 317 318 324 319 306 302 301 299 294 291 295 295 292 285 279
110 108 107 104 97 87 85 91 96 97 98 99 97 79 357 334 313 298 293 307 318 313 302 314 327 329 327 320 318 317 308 297 302 299 299 298 299 297 295 293 296 301 299
111 106 100 97 98 88 78 82 98 103 132 130 153 185 270 304 314 336 338 318 315 311 335 348 333 327 326 321 315 309 305 307 307 302 300 301 301 300 298 296 288 294 292
114 107 103 100 94 92 90 70 69 79 73 72 81 341 284 326 338 343 338 337 337 339 350 332 323 320 318 318 318 316 313 309 305 304 300 297 298 298 299 298 293 293 293
119 116 107 103 102 102 101 97 70 38 45 41 26 10 1 352 348 344 341 343 343 348 343 315 311 310 309 308 307 306 306 305 302 299 296 296 296 296 296 298 299 297 295
111 116 114 109 109 106 101 97 92 69 20 351 356 0 358 353 350 348 349 352 341 341 317 306 306 306 306 305 305 305 305 306 304 301 297 295 294 295 297 297 297 296 298
113 111 110 108 103 99 96 92 82 66 34 341 329 341 351 348 349 351 356 344 318 318 314 308 304 303 303 302 302 301 300 301 300 299 297 295 295 296 296 295 296 298 300
116 125 120 111 103 97 91 84 66 37 8 344 334 324 321 339 340 333 333 315 311 310 310 307 305 302 302 300 299 298 300 299 299 298 296 295 295 294 294 296 297 298 299
114 121 119 109 104 104 94 73 39 5 344 331 319 319 334 345 324 317 317 314 310 309 308 306 303 302 300 298 297 296 296 297 295 295 296 297 298 298 296 295 296 298 299
118 115 117 116 110 102 92 53 10 346 332 324 315 319 335 335 313 309 309 309 306 300 299 300 299 296 295 295 296 297 297 296 296 297 298 299 299 299 299 301 302 305 307
119 117 112 104 90 69 59 18 350 330 320 314 312 315 320 318 314 308 307 308 307 305 302 300 298 297 295 294 292 289 289 292 295 296 300 302 304 304 304 305 306 309 312
121 121 119 111 92 59 3 332 326 323 318 312 310 310 310 309 308 307 306 305 305 303 301 299 295 293 295 300 300 295 290 291 294 294 294 298 304 307 308 308 309 310 313
121 122 122 121 104 336 317 314 316 318 316 312 309 309 309 308 305 304 303 302 302 301 300 302 298 298 299 301 301 300 301 306 309 310 307 308 308 308 310 309 310 313 315
126 128 133 143 217 292 300 304 304 303 300 299 298 299 299 299 299 300 302 302 305 306 304 304 300 301 303 303 302 305 311 316 319 322 322 313 312 312 315 315 314 316 315
Height
1413 1414 1416 1419 1424 1429 1433 1438 1442 1447 1451 1456 1461 1465 1470 1474 1478 1481 1483 1485 1487 1488 1488 1488 1487 1486 1484 1483 1481 1479 1477 1474 1469 1464 1464 1461 1458 1454 1450 1446 1442 1438 1434
1408 1409 1412 1415 1420 1424 1429 1434 1438 1443 1448 1453 1458 1462 1467 1472 1475 1478 1480 1483 1484 1484 1484 1484 1483 1481 1479 1478 1476 1473 1471 1468 1464 1458 1455 1453 1450 1446 1442 1438 1434 1430 1426
1404 1406 1409 1412 1417 1421 1426 1430 1435 1440 1445 1450 1455 1460 1465 1470 1473 1476 1478 1480 1480 1481 1480 1480 1478 1476 1474 1472 1470 1467 1465 1461 1458 1453 1448 1445 1442 1439 1434 1430 1426 1422 1418
1401 1403 1406 1410 1415 1419 1423 1428 1433 1438 1443 1448 1454 1460 1464 1468 1472 1474 1476 1476 1477 1477 1476 1475 1473 1471 1469 1466 1463 1461 1458 1455 1451 1447 1442 1438 1435 1432 1428 1422 1416 1413 1409
1400 1403 1405 1409 1414 1418 1423 1427 1432 1437 1443 1449 1455 1460 1464 1467 1470 1471 1472 1473 1473 1473 1472 1470 1468 1466 1463 1460 1458 1455 1452 1449 1445 1441 1437 1432 1428 1425 1421 1416 1410 1404 1400
1402 1404 1407 1410 1415 1419 1423 1428 1433 1439 1445 1451 1456 1460 1463 1466 1467 1468 1469 1470 1469 1469 1468 1465 1463 1460 1457 1454 1452 1449 1447 1444 1440 1436 1431 1427 1422 1419 1415 1410 1405 1398 1392
1404 1407 1410 1413 1417 1421 1426 1431 1436 1442 1447 1453 1457 1460 1462 1464 1465 1466 1466 1466 1466 1464 1462 1460 1457 1454 1451 1448 1445 1442 1440 1437 1435 1432 1426 1422 1417 1413 1409 1404 1400 1394 1388
1409 1411 1414 1417 1421 1425 1430 1435 1441 1446 1451 1454 1458 1460 1462 1463 1463 1463 1463 1463 1462 1460 1457 1454 1451 1448 1445 1442 1438 1436 1433 1431 1428 1424 1420 1415 1412 1408 1404 1400 1394 1387 1381
1415 1417 1421 1423 1426 1430 1435 1440 1445 1449 1453 1456 1458 1460 1461 1461 1461 1461 1460 1459 1457 1455 1453 1450 1446 1443 1440 1436 1434 1430 1426 1423 1421 1418 1414 1410 1407 1403 1399 1393 1387 1381 1373
1421 1423 1426 1429 1433 1437 1441 1445 1449 1452 1455 1457 1458 1459 1460 1460 1459 1458 1457 1455 1453 1450 1448 1445 1441 1437 1434 1432 1429 1425 1420 1417 1413 1409 1406 1403 1400 1396 1392 1388 1382 1376 1368
1426 1429 1432 1436 1439 1442 1446 1449 1452 1454 1456 1457 1458 1458 1458 1458 1457 1455 1453 1451 1448 1445 1442 1439 1436 1433 1430 1427 1424 1420 1416 1413 1408 1404 1400 1396 1393 1389 1385 1381 1377 1371 1364
1431 1434 1437 1440 1444 1447 1450 1452 1454 1455 1457 1457 1457 1457 1456 1455 1454 1452 1450 1448 1445 1441 1438 1434 1431 1428 1425 1422 1418 1415 1412 1408 1403 1399 1395 1391 1387 1383 1378 1374 1370 1365 1359
1437 1440 1443 1446 1448 1451 1453 1454 1455 1456 1457 1457 1456 1456 1454 1453 1451 1449 1446 1443 1440 1437 1433 1430 1427 1424 1420 1417 1414 1411 1407 1403 1399 1395 1390 1386 1382 1377 1372 1367 1362 1357 1351
1442 1445 1447 1449 1451 1453 1455 1456 1456 1456 1456 1456 1455 1453 1452 1450 1448 1445 1442 1439 1436 1433 1429 1426 1423 1420 1417 1414 1410 1407 1403 1399 1395 1391 1386 1381 1376 1371 1366 1361 1354 1348 1341
1447 1449 1451 1453 1454 1455 1456 1456 1456 1456 1455 1454 1453 1451 1449 1446 1444 1442 1439 1435 1433 1429 1426 1423 1420 1416 1413 1410 1407 1403 1400 1396 1391 1387 1381 1376 1371 1365 1360 1355 1349 1342 1336
1450 1452 1453 1455 1456 1456 1456 1456 1455 1455 1453 1452 1450 1448 1445 1444 1441 1438 1436 1433 1429 1426 1423 1420 1416 1413 1410 1406 1402 1399 1395 1391 1387 1382 1377 1372 1366 1360 1354 1349 1344 1337 1330
1453 1454 1455 1456 1456 1456 1456 1455 1454 1453 1451 1449 1447 1445 1443 1441 1438 1435 1432 1429 1426 1423 1420 1417 1414 1411 1407 1403 1400 1396 1391 1388 1383 1378 1373 1368 1362 1356 1350 1344 1338 1332 1325
1455 1456 1456 1456 1456 1456 1455 1454 1453 1451 1450 1447 1445 1443 1440 1438 1435 1432 1429 1426 1424 1421 1418 1415 1411 1408 1405 1401 1397 1393 1388 1384 1379 1374 1369 1364 1358 1352 1346 1340 1333 1327 1320
1456 1456 1456 1456 1456 1455 1454 1452 1450 1449 1447 1445 1442 1440 1438 1435 1433 1430 1427 1424 1421 1418 1415 1412 1409 1406 1402 1398 1394 1390 1386 1381 1376 1371 1366 1360 1355 1348 1342 1336 1329 1323 1317
1456 1456 1456 1455 1454 1453 1452 1450 1448 1446 1444 1442 1440 1437 1435 1432 1430 1427 1425 1422 1419 1416 1413 1410 1407 1404 1400 1396 1392 1387 1383 1378 1373 1368 1362 1356 1351 1345 1338 1332 1325 1319 1313
1456 1456 1455 1454 1453 1452 1450 1448 1446 1444 1442 1440 1437 1435 1433 1430 1427 1425 1422 1419 1417 1414 1411 1407 1404 1401 1397 1393 1389 1384 1380 1375 1370 1364 1359 1353 1347 1341 1335 1329 1322 1316 1310
1455 1455 1454 1453 1452 1450 1448 1446 1444 1442 1440 1438 1435 1433 1430 1428 1425 1423 1420 1417 1415 1412 1409 1405 1402 1399 1395 1391 1386 1381 1376 1372 1367 1361 1355 1349 1343 1337 1332 1326 1320 1313 1307
1454 1453 1453 1452 1450 1448 1446 1444 1442 1440 1438 1435 1433 1430 1428 1425 1423 1420 1418 1415 1412 1410 1407 1403 1400 1396 1392 1388 1384 1379 1374 1369 1364 1359 1353 1347 1341 1335 1329 1323 1317 1311 1305
1453 1452 1451 1450 1448 1446 1444 1442 1440 1438 1435 1433 1431 1428 1426 1423 1421 1418 1415 1413 1410 1407 1404 1401 1397 1393 1389 1385 1381 1377 1372 1367 1362 1356 1351 1345 1339 1333 1327 1321 1315 1309 1303
1451 1450 1449 1448 1446 1444 1442 1440 1438 1435 1433 1431 1428 1426 1423 1421 1418 1416 1413 1410 1407 1404 1401 1398 1394 1390 1386 1382 1378 1373 1369 1364 1359 1354 1349 1343 1337 1331 1326 1320 1314 1308 1302
1450 1448 1447 1445 1444 1442 1440 1438 1435 1433 1430 1428 1426 1423 1421 1418 1416 1413 1410 1407 1404 1401 1398 1395 1391 1387 1383 1379 1375 1370 1366 1361 1356 1352 1346 1341 1335 1329 1324 1318 1313 1307 1301